#timestamp,LO_Frequency,Hit,StdDev 
1675548015.9,286047001.6,N
1675548035.7,286047004.1,N
1675548055.5,286047002.0,N
1675548075.4,286047001.6,N
1675548095.2,286047002.1,N
1675548115.1,286047000.2,N
1675548116.0,286047000.2,N
1675548135.8,286047002.4,N
1675548155.6,286047001.7,N
1675548175.5,286047000.2,N
1675548195.3,286046998.7,N
1675548215.2,286046999.5,N
1675548235.9,286046999.3,N
1675548255.7,286047001.1,N
1675548275.6,286046998.2,N
1675548295.4,286047000.7,N
1675548315.2,286047000.6,N
1675548335.1,286047000.2,N
1675548336.0,286047000.2,N
1675548355.8,286047000.3,N
1675548375.7,286047000.3,N
1675548395.5,286047002.6,N
1675548415.3,286047002.0,N
1675548435.2,286047004.1,Y
1675548455.0,286047002.4,P
1675548455.9,286047002.4,P
1675548475.8,286047002.6,P
1675548495.6,286046998.4,N
1675548515.4,286046996.5,N
1675548535.3,286046999.2,N
1675548555.1,286046999.1,N
1675548575.8,286046998.3,N
1675548595.7,286046999.9,N
1675548615.5,286047002.4,N
1675548635.4,286047001.9,N
1675548655.2,286047000.0,N
1675548675.0,286047001.9,N
1675548675.9,286047001.9,N
1675548695.8,286047000.0,N
1675548715.6,286046998.3,N
1675548735.5,286047000.1,N
1675548755.3,286046998.7,N
1675548775.1,286046998.2,N
1675548795.9,286047000.3,N
1675548815.7,286047001.9,N
1675548835.5,286047000.2,N
1675548855.4,286047002.3,N
1675548875.2,286047000.3,N
1675548895.1,286046999.2,N
1675548896.0,286046999.2,N
1675548915.8,286046998.9,N
1675548935.6,286046999.1,N
1675548955.5,286046999.1,N
1675548975.3,286046998.5,N
1675548995.2,286046997.0,N
1675549015.9,286046998.2,N
1675549035.7,286047000.8,N
1675549055.6,286046998.3,N
1675549075.4,286046998.8,N
1675549095.2,286047000.8,N
1675549115.1,286047002.7,N
1675549116.0,286047002.7,N
1675549135.8,286047000.2,N
1675549155.7,286046999.9,N
1675549175.5,286047000.8,N
1675549195.3,286046998.1,N
1675549215.2,286047000.8,N
1675549235.9,286047000.4,N
1675549255.7,286047001.4,N
1675549275.6,286047000.4,N
1675549295.4,286046998.9,N
1675549315.2,286046998.3,N
1675549335.1,286047000.4,N
1675549336.0,286047000.4,N
1675549355.8,286046999.0,N
1675549375.7,286047000.9,N
1675549395.5,286047000.6,N
1675549415.3,286047000.0,N
1675549435.2,286047000.1,N
1675549455.0,286047000.0,N
1675549455.9,286047000.0,N
1675549475.8,286047002.4,N
1675549495.6,286047001.5,N
1675549515.4,286047004.3,Y
1675549535.3,286047001.6,P
1675549555.1,286047001.6,N
1675549575.8,286046999.8,N
1675549595.7,286046999.9,N
1675549615.5,286047002.8,Y
1675549635.4,286046998.1,P
1675549655.2,286047002.8,N
1675549675.0,286047000.9,N
1675549675.9,286047000.9,N
1675549695.8,286046999.4,N
1675549715.6,286046998.7,N
1675549735.5,286046998.2,N
1675549755.3,286046999.5,N
1675549775.1,286047000.6,N
1675549795.9,286047000.6,N
1675549815.7,286047000.7,N
1675549835.5,286047001.0,N
1675549855.4,286047000.1,N
1675549875.2,286047002.6,N
1675549895.1,286046999.7,N
1675549896.0,286046999.7,N
1675549915.8,286047004.0,Y
1675549935.6,286047002.6,P
1675549955.5,286047002.0,N
1675549975.3,286047001.3,N
1675549995.1,286047001.6,N
1675550015.9,286047000.2,N
1675550035.7,286046998.9,N
1675550055.6,286046995.7,Y
1675550075.4,286046995.9,P
1675550095.2,286046995.8,N
1675550115.1,286046998.0,N
1675550116.0,286046998.0,N
1675550135.8,286046997.0,N
1675550155.7,286046996.6,N
1675550175.5,286046997.0,N
1675550195.3,286046999.1,N
1675550215.2,286046996.9,N
1675550235.0,286046999.1,N
1675550235.9,286046999.1,N
1675550255.8,286046998.8,N
1675550275.6,286046998.1,N
1675550295.4,286047000.0,N
1675550315.3,286046999.8,N
1675550335.1,286046999.8,N
1675550355.9,286047001.0,N
1675550375.7,286047001.2,N
1675550395.5,286047000.7,N
1675550415.4,286047000.9,N
1675550435.2,286046999.4,N
1675550455.0,286046996.5,N
1675550455.9,286046996.5,N
1675550475.8,286046999.2,N
1675550495.6,286046996.5,N
1675550515.5,286046997.9,N
1675550535.3,286046994.5,Y
1675550555.1,286046996.7,P
1675550575.9,286046994.9,P
1675550595.7,286046995.3,P
1675550615.6,286046999.3,N
1675550635.4,286046996.5,N
1675550655.2,286046998.4,N
1675550675.1,286046996.6,N
1675550695.8,286046998.2,N
1675550715.7,286046998.1,N
1675550765.6,286046999.2,E
1675550775.5,286046998.1,N
1675550795.4,286047001.1,P
1675550815.2,286047000.8,N
1675550835.0,286047001.6,N
1675550835.9,286047001.6,N
1675550855.8,286047002.7,N
1675550875.6,286047000.2,N
1675550895.4,286046999.1,N
1675550915.3,286046997.4,N
1675550935.1,286046998.5,N
1675550955.9,286047000.9,N
1675550975.7,286047000.5,N
1675550995.5,286047000.1,N
1675551015.4,286047002.7,N
1675551035.2,286047002.0,N
1675551055.0,286047000.4,N
1675551055.9,286047000.4,N
1675551075.8,286047001.8,N
1675551095.6,286047001.7,N
1675551115.5,286047002.4,N
1675551135.3,286047000.2,N
1675551155.1,286046999.8,N
1675551175.9,286047000.2,N
1675551195.7,286047000.5,N
1675551215.5,286046998.1,N
1675551235.4,286047000.9,N
1675551255.2,286046999.6,N
1675551275.1,286046998.3,N
1675551276.0,286046998.3,N
1675551295.8,286047000.8,N
1675551315.6,286047000.0,N
1675551335.5,286046998.1,N
1675551355.3,286047000.2,N
1675551375.1,286046999.7,N
1675551395.9,286047002.8,N
1675551415.7,286047004.4,Y
1675551435.6,286047001.5,P
1675551455.4,286047001.8,N
1675551475.2,286047001.6,N
1675551495.1,286047002.0,Y
1675551496.0,286047002.0,P
1675551515.8,286046998.2,P
1675551535.7,286046997.7,N
1675551555.5,286046997.3,N
1675551575.3,286046997.1,N
1675551595.2,286046998.8,N
